Regional Weather Roundup
Issued by NWS

Home | Current Version | Previous Version | Text Only | Print | Product List | Glossary Off
Versions: 1 2 3 4 5 6 7 8 9 10 11 12 13 14 15 16 17 18 19 20 21 22 23 24 25 26 27 28 29 30 31 32 33 34 35 36 37 38 39 40 41 42 43 44 45 46 47 48 49 50

000
ASUS43 KDTX 031701
RWRMI
MICHIGAN HOURLY REGIONAL WEATHER ROUNDUP
NATIONAL WEATHER SERVICE DETROIT/PONTIAC MI
100 PM EDT MON AUG 03 2015

NOTE: "FAIR" INDICATES FEW OR NO CLOUDS BELOW 12,000 FEET WITH NO
SIGNIFICANT WEATHER AND/OR OBSTRUCTION TO VISIBILITY.

MIZ047>049-052>055-059>063-066>070-074>076-081>083-031800-
SOUTHEAST LOWER MICHIGAN

CITY           SKY/WX    TMP DP  RH WIND       PRES   REMARKS
ADRIAN         MOSUNNY   76  65  68 W10       29.82S
ALMA           MOSUNNY   75  57  53 W13       29.79S
ANN ARBOR      MOSUNNY   76  62  62 NW14      29.80S
BAD AXE        CLOUDY    71  61  68 W6        29.77S
CARO           CLOUDY    72  62  70 W6        29.77F
DETROIT CITY   SUNNY     77  58  51 NW10      29.79S
DETROIT        MOSUNNY   79  61  53 W12       29.80S
FLINT          MOSUNNY   78  58  49 W8        29.79F
GROSSE ILE     MOSUNNY   79  64  61 W7        29.79S
HILLSDALE      MOSUNNY   77  65  67 W8        29.83S
HOWELL         MOSUNNY   76  60  57 W5        29.80S

CITY           SKY/WX    TMP DP  RH WIND       PRES   REMARKS
JACKSON        MOSUNNY   75  62  64 W12       29.81F
LAMBERTVILLE   SUNNY     77  64  64 NW6       29.82S
LANSING        PTSUNNY   76  61  59 SW12      29.79F
LAPEER         FAIR      75  57  52 NW9       29.79S
MASON          PTSUNNY   74  61  64 W8        29.80F
MONROE         MOSUNNY   77  65  66 W10       29.80S
MT. CLEMENS    MOSUNNY   77  58  51 NW7       29.77S
PONTIAC        MOSUNNY   74  58  57 W9        29.79S
PORT HURON     MOSUNNY   75  59  57 W6        29.79R
TRI CITIES     PTSUNNY   73  64  73 SW10      29.78S
MIDLAND        CLOUDY    77  52  42 W15G22    29.76S
TROY           MOSUNNY   78  58  51 MISG      29.81S
SAGINAW HB     CLOUDY    72  63  73 W7        29.77S
$$
MIZ043>046-050>051-056>058-064>065-071>073-077>080-031800-
SOUTHWEST LOWER MICHIGAN

CITY           SKY/WX    TMP DP  RH WIND       PRES   REMARKS
BATTLE CREEK     N/A    N/A N/A N/A MISG      29.82S
BENTON HARBOR  SUNNY     73  62  68 NW10      29.85R
BIG RAPIDS     SUNNY     74  47  38 W8G20     29.79S
COLDWATER      MOSUNNY   76  63  64 W7        29.83S
FREMONT        FAIR      76  48  37 W10G16    29.80S
HOLLAND        SUNNY     75  60  59 W9        29.84R
GRAND RAPIDS   PTSUNNY   77  55  46 W15       29.81R
IONIA          FAIR      77  59  52 W12       29.79S
KALAMAZOO      MOSUNNY   79  61  53 W12G20    29.82S
LUDINGTON      SUNNY     76  61  59 W6        29.81R
MARSHALL       MOSUNNY   76  64  67 W12       29.81F
MOUNT PLEASANT CLOUDY    79  53  41 W12       29.78R
MUSKEGON       MOSUNNY   75  58  55 W12       29.82R
SOUTH HAVEN    SUNNY     73  62  69 NW10      29.85R
$$
MIZ016>042-031800-
NORTHERN LOWER MICHIGAN

CITY           SKY/WX    TMP DP  RH WIND       PRES   REMARKS
ALPENA         CLOUDY    73  52  47 W13       29.72S
BEAVER ISLAND  PTSUNNY   69  54  58 W9        29.75S
BELLAIRE       PTSUNNY   70  54  57 W7        29.77R
CHARLEVOIX     PTSUNNY   69  55  60 W12       29.79S
FRANKFORT      MOSUNNY   72  54  52 NW7       29.79S
GAYLORD        MOSUNNY   68  51  54 W15G22    29.76R
GRAYLING       PTSUNNY   72  55  56 W12       29.77S
HARBOR SPRINGS MOSUNNY   69  56  64 W7        29.74S
HOUGHTON LAKE  CLOUDY    69  54  58 W14       29.78R
MANISTEE       MOSUNNY   70  54  56 W8        29.81R
OSCODA         PTSUNNY   75  55  49 SW13      29.72S
PELLSTON       MOSUNNY   70  52  52 NW13G23   29.74S
ROGERS CITY    CLOUDY    69  56  63 W7        29.73S
TRAVERSE CITY  MOSUNNY   72  53  51 NW8       29.76S
$$
MIZ007>008-015-031800-
EASTERN UPPER MICHIGAN

CITY           SKY/WX    TMP DP  RH WIND       PRES   REMARKS
KINROSS        CLOUDY    64  55  72 NW9       29.72S
MACKINAC ISLAN PTSUNNY   67  56  66 W12       29.73S
NEWBERRY       CLOUDY    64  53  66 W6        29.73S
S. S. MARIE    CLOUDY    63  52  67 NW13      29.71S
MUNISING         N/A     65  55  70 N12       29.74S
$$
MIZ004>006-011>014-085-031800-
CENTRAL UPPER MICHIGAN

CITY           SKY/WX    TMP DP  RH WIND       PRES   REMARKS
ESCANABA       CLOUDY    70  50  49 W10       29.73R
MENOMINEE      CLOUDY    70  50  49 W5        29.76S
$$
MIZ001>003-009>011-084-031800-
WESTERN UPPER MICHIGAN

CITY           SKY/WX    TMP DP  RH WIND       PRES   REMARKS
IRON MOUNTAIN  MOSUNNY   73  49  42 W16G22    29.75S
HOUGHTON       CLOUDY    61  52  72 W9        29.76R
COPPER HARBOR    N/A     63  53  70 N9        29.73R
IRONWOOD       PTSUNNY   64  54  68 NW15      29.80R
$$

ABBREVIATIONS USED IN REMARKS
   TC - TEMPERATURE IN CELSIUS
  WCI - WIND CHILL INDEX
   HX - HEAT INDEX
  VSB - VISIBILITY



USA.gov is the U.S. government's official web portal to all federal, state and local government web resources and services.